sat.trackr.live / text

‹ back to catalog

FLOCK 4BE-23

NORAD 60490 · 2024-149Y

PAYLOAD ACTIVE UNKNOWN

§ Identity

Operator
Country
US
Launch date
2024-08-16
Launch site
AFWTR
Launch vehicle
Mass (kg)
RCS (m²)

Purposes: earth_obs

External: N2YO · Heavens-Above · Gunter

§ Orbital elements

Epoch: 2026-05-25T04:41:15.838080Z

Period
93.69 min
Inclination
97.3778°
Eccentricity
0.0003061
Mean motion
15.37012724 rev/d
Perigee alt
452.9 km
Apogee alt
457.0 km
Semi-major
6,833.1 km
B*
3.7091e-4
RAAN
227.5023°
Arg perigee
27.6658°
Mean anomaly
332.4748°
Rev number
9,866

§ Raw data

FLOCK 4BE-231 60490U 24149Y   26145.19532220  .00013358  00000+0  37091-3 0  99932 60490  97.3778 227.5023 0003061  27.6658 332.4748 15.37012724 98669

JSON: /api/v1/satellites/60490 · /tle

For live sub-satellite position, see the globe view (requires WebGL).

§ Visibility from observer

Set your observer location to see the next 7 days of passes ≥ 10°. The values pass through the URL so the page stays shareable.

No JS? Fill the form by hand. The geolocation button needs JavaScript.